Home   Weather   Horgen   Past weeks

Flag for Switzerland Past Weather in Horgen, Zurich, Switzerland — Yesterday and Last 2 Weeks

Now
53 °F

Cool.


Feels Like: 53 °F
Forecast: 47 / 70 °F
Wind: 1 mph from Southeast

Location: Zuerich-Fluntern

Current Time: Sep 28, 2016 at 3:52:12 AM

Latest Report: Sep 28, 2016 at 3:00 AM


Visibility: N/A

Pressure: 30.40 "Hg

Humidity: 94%

Dew Point: 51 °F

Location of HorgenLocation

Past Weather in Horgen — Graph

°F

Horgen Temperature Yesterday

Maximum temperature yesterday: 65 °F (at 3:00 PM)
Minimum temperature yesterday: 55 °F (at 10:00 PM)
Average temperature yesterday: 59 °F

High & Low Weather Summary for the Past Weeks

 TemperatureHumidityPressure
High81 °F (Sep 13, 4:00 PM)100% (Sep 20, 3:00 AM)30.40 "Hg (Sep 20, 3:00 AM)
Low46 °F (Sep 22, 5:00 AM)45% (Sep 13, 4:00 PM)29.78 "Hg (Sep 15, 3:00 AM)
Average59 °F81%30.07 "Hg
* Reported Sep 13 2:00 AM — Sep 28 2:00 AM, Horgen, Weather by CustomWeather, © 2016

Note: Actual official high and low records may vary slightly from our data, if they occured in-between our weather recording intervals... More about our weather records

Advertising

Horgen Weather History for the Previous 24 Hours

Scroll right to see more
 ConditionsComfort  
Time TempWeatherWind HumidityBarometerVisibility
2:00 AM
Wed, Sep 28
54 °FCool.2 mph94%30.40 "HgN/A
1:00 AM54 °FCool.1 mph93%30.39 "HgN/A
12:00 AM56 °FCool.No wind91%30.38 "HgN/A
11:00 PM
Tue, Sep 27
55 °FCool.2 mph89%30.38 "HgN/A
10:00 PM55 °FCool.1 mph90%30.37 "HgN/A
9:00 PM57 °FCool.5 mph86%30.36 "HgN/A
8:00 PM58 °FPassing clouds.3 mph85%30.34 "HgN/A
7:00 PM60 °FCool.3 mph81%30.32 "HgN/A
6:00 PM64 °FMild.2 mph76%30.29 "HgN/A
5:00 PM63 °FMild.2 mph72%30.28 "HgN/A
4:00 PM65 °FMild.3 mph66%30.27 "HgN/A
3:00 PM65 °FMild.3 mph67%30.27 "HgN/A
2:00 PM63 °FOvercast.3 mph76%30.28 "HgN/A
1:00 PM62 °FCool.2 mph77%30.29 "HgN/A
12:00 PM60 °FCool.5 mph82%30.30 "HgN/A
11:00 AM58 °FCool.5 mph88%30.29 "HgN/A
10:00 AM58 °FCool.2 mph87%30.28 "HgN/A
9:00 AM58 °FCool.1 mph85%30.26 "HgN/A
8:00 AM56 °FCool.1 mph90%30.25 "HgN/A
7:00 AM57 °FCool.3 mph83%30.24 "HgN/A
6:00 AM56 °FCool.2 mph89%30.22 "HgN/A
5:00 AM58 °FCool.1 mph91%30.21 "HgN/A
4:00 AM58 °FCool.1 mph89%30.20 "HgN/A
3:00 AM59 °FCool.3 mph87%30.19 "HgN/A
Weather by CustomWeather, © 2016

See weather overviewHow to use our weather pages